[[{"header":{"parameterUnit":"m.s-1","parameterCategory":1,"la1":30.2991,"la2":30.254,"lo1":-89.0895,"lo2":-89.0444,"dy":0.0017,"dx":0.0017,"nx":28,"ny":28,"refTime":"2023-08-29T09:00:00:Z","depth":0,"parameterNumber":2,"parameterNumberName":"U-component_of_WINDS"},"data":[0,0,0,0,0,0,0,0,0,0,0,0,0,0,0,0,0,0,0,0,0,0,0,0,0,0,0,0,0,0,0,0,0,0,0,0,0,0,0,0,0,0,0,0,0,0,0,0,0,0,0,0,0,0,0,0,0,0,0.7845,0.7845,0,0.7891,0.7892,0.7893,0.7893,0.7892,0.7892,0.7891,0.7941,0.7942,0.7944,0,0,0,0,0,0,0,0,0,0,0,0,0,0.7759,0.7761,0.7845,0.7845,0.7846,0.7891,0.7892,0.7893,0.7893,0.7892,0.7891,0.7891,0.794,0.7942,0.7945,0,0,0,0,0,0,0,0,0,0,0,0,0,0.78,0.7761,0.7845,0.7852,0.7853,0.7891,0.7892,0.7893,0.7893,0.7892,0.7891,0.789,0.7939,0.7942,0.7945,0.798,0,0,0.7953,0.7955,0,0,0,0,0,0,0,0,0.7798,0.7803,0.785,0.7851,0.7852,0.7885,0.788,0.7922,0.7893,0.7878,0.7891,0.789,0.7923,0.7927,0.7938,0.7983,0.7985,0.7954,0.7955,0.7957,0.7957,0,0,0,0,0,0,0,0.7795,0.7801,0.7863,0.7851,0.7852,0.7853,0.7858,0.7888,0.7905,0.7879,0.7879,0.7885,0.7924,0.7935,0.7939,0.7986,0.7954,0.7956,0.7958,0.7959,0.8064,0.8065,0,0,0,0,0,0,0.779,0.7799,0.7862,0.7865,0.7822,0.7856,0.7861,0.7876,0.7905,0.7908,0.7885,0.7884,0.7931,0.7936,0.7941,0.7986,0.7957,0.7959,0.7961,0.8063,0.8064,0.8066,0,0,0,0,0,0,0.7789,0.7796,0.786,0.7832,0.784,0.7858,0.7875,0.7877,0.7889,0.7909,0.7913,0.7894,0.793,0.7937,0.7971,0.7988,0.7961,0.7963,0.8062,0.8064,0.8065,0.8075,0,0,0,0,0,0,0.7786,0.7795,0.7808,0.7832,0.7842,0.7888,0.7876,0.7879,0.7893,0.7893,0.7918,0.7922,0.793,0.7967,0.7974,0.7991,0.7965,0.806,0.8063,0.8065,0.8073,0.8077,0.808,0,0,0,0,0,0.7783,0.7809,0.7809,0.7816,0.7858,0.7889,0.7895,0.7903,0.7895,0.7908,0.7922,0.7921,0.7984,0.797,0.7978,0.7996,0.8059,0.8062,0.8064,0.8072,0.8076,0.808,0,0,0,0,0,0,0.7787,0.7812,0.7812,0.7847,0.7866,0.7889,0.7907,0.7907,0.793,0.7928,0.7939,0.7944,0.7979,0.7991,0.7975,0.8034,0.8021,0.8025,0.8024,0.8028,0.8032,0.8028,0.7968,0,0,0,0,0,0.7792,0.7814,0.7836,0.7864,0.7874,0.7889,0.7902,0.7908,0.7928,0.7936,0.7952,0.7973,0.7998,0.8014,0.8037,0.8075,0.8082,0.8092,0.8095,0.8098,0.8101,0.8124,0.8129,0.8074,0.8074,0.8074,0,0,0.7802,0.7819,0.7833,0.7866,0.7881,0.7905,0.7895,0.7921,0.7939,0.794,0.7974,0.7986,0.801,0.8046,0.8063,0.8058,0.8118,0.8101,0.8103,0.8105,0.8127,0.8133,0.8137,0.8075,0.8075,0.8075,0,0,0.7834,0.7848,0.7874,0.789,0.7913,0.7923,0.7929,0.7953,0.7961,0.7995,0.7996,0.8019,0.8061,0.8078,0.8093,0.8132,0.8133,0.814,0.8157,0.8179,0.8184,0.8187,0.8203,0.8208,0.8143,0.8143,0.8143,0,0.7844,0.788,0.7888,0.7914,0.7929,0.793,0.7958,0.7973,0.8003,0.8014,0.8007,0.8061,0.8077,0.8118,0.8128,0.8139,0.8148,0.8137,0.8182,0.8186,0.819,0.8205,0.8211,0.8144,0.8144,0.8144,0.8144,0,0.7892,0.7917,0.7935,0.7964,0.7981,0.8008,0.8021,0.8037,0.8041,0.8053,0.8088,0.8107,0.8136,0.8146,0.815,0.8188,0.8184,0.818,0.8168,0.8196,0.821,0.8216,0.8145,0.8145,0.8145,0.8145,0,0,0.7927,0.796,0.7967,0.7981,0.8007,0.8027,0.8055,0.8082,0.8097,0.8118,0.8142,0.8178,0.8175,0.8191,0.8197,0.8216,0.8249,0.821,0.8211,0.8217,0.8294,0.8298,0.8305,0.8249,0.825,0.8251,0.8293,0,0.7962,0.801,0.8018,0.8061,0.8085,0.8087,0.8111,0.8131,0.8142,0.8165,0.8178,0.8204,0.8197,0.8207,0.8226,0.8241,0.8264,0.8238,0.8273,0.8274,0.8268,0.8312,0.8316,0.8355,0.8298,0.8299,0.83,0,0.8009,0.8031,0.8076,0.81,0.8111,0.8132,0.8159,0.818,0.8203,0.8211,0.8229,0.8234,0.8264,0.825,0.8293,0.8274,0.8289,0.8299,0.8301,0.8305,0.8289,0.8319,0.8367,0.8373,0.8309,0.8308,0.8307,0,0.8032,0.8073,0.8105,0.8117,0.8146,0.8161,0.8174,0.8196,0.8213,0.8237,0.8248,0.8275,0.829,0.8311,0.8324,0.8312,0.8366,0.8353,0.8374,0.8374,0.8386,0.8385,0.8438,0.8394,0.8394,0.8393,0.8393,0,0.8071,0.8098,0.8116,0.8136,0.8167,0.8178,0.8209,0.8222,0.8242,0.8265,0.8269,0.8292,0.8306,0.8331,0.8341,0.8375,0.8382,0.839,0.8392,0.839,0.8389,0.84,0.8399,0.8395,0.8395,0.8394,0.8394,0,0.8101,0.8114,0.815,0.8175,0.8182,0.8204,0.8226,0.8246,0.8258,0.8288,0.8296,0.8315,0.8344,0.8358,0.8395,0.8402,0.8442,0.8442,0.8434,0.8435,0.8456,0.8454,0.8519,0.8529,0.8477,0.8477,0.8478,0,0.8126,0.8147,0.8174,0.819,0.8203,0.8229,0.8246,0.8257,0.8275,0.8304,0.8321,0.8351,0.8375,0.8423,0.844,0.8469,0.8471,0.8491,0.8475,0.8473,0.8473,0.8472,0.8475,0.8495,0.8495,0.8495,0.8496,0,0.8168,0.8174,0.8198,0.8224,0.8244,0.8266,0.8287,0.8301,0.8316,0.8336,0.8366,0.8385,0.8423,0.8453,0.8483,0.8498,0.85,0.8501,0.8508,0.8506,0.8501,0.8505,0.8443,0.8499,0.8499,0.8499,0.8499,0.8498,0.8197,0.8217,0.824,0.8267,0.8284,0.8304,0.8325,0.8339,0.8364,0.8396,0.8401,0.8434,0.8458,0.8499,0.8514,0.8541,0.8536,0.8546,0.8548,0.8551,0.8553,0.8496,0.8546,0.8546,0.8546,0.8546,0.8546,0,0.8241,0.8256,0.8281,0.8311,0.8332,0.8332,0.8356,0.8375,0.8403,0.8425,0.8449,0.8484,0.8514,0.8534,0.8565,0.8582,0.8584,0.859,0.8589,0.8593,0.8554,0.8546,0.8588,0.8588,0.8588,0.8588,0.8588,0.8588,0.8267,0.83,0.8309,0.8352,0.8367,0.8398,0.8412,0.8432,0.8449,0.8489,0.8513,0.8526,0.8548,0.858,0.8608,0.8613,0.8625,0.8631,0.8636,0.86,0.8595,0.8591,0.8584,0.8633,0.8633,0.8673,0.8673,0.8674]},{"header":{"parameterUnit":"m.s-1","parameterCategory":1,"la1":30.2991,"la2":30.254,"lo1":-89.0895,"lo2":-89.0444,"dy":0.0017,"dx":0.0017,"nx":28,"ny":28,"refTime":"2023-08-29T09:00:00:Z","depth":0,"parameterNumber":3,"parameterNumberName":"V-component_of_WINDS"},"data":[0,0,0,0,0,0,0,0,0,0,0,0,0,0,0,0,0,0,0,0,0,0,0,0,0,0,0,0,0,0,0,0,0,0,0,0,0,0,0,0,0,0,0,0,0,0,0,0,0,0,0,0,0,0,0,0,0,0,-5.876,-5.8761,0,-5.8887,-5.8888,-5.889,-5.8903,-5.8901,-5.89,-5.8899,-5.9025,-5.9029,-5.9033,0,0,0,0,0,0,0,0,0,0,0,0,0,-5.8527,-5.8531,-5.876,-5.8761,-5.8763,-5.8887,-5.8888,-5.889,-5.8903,-5.8901,-5.89,-5.8898,-5.9023,-5.9028,-5.9034,0,0,0,0,0,0,0,0,0,0,0,0,0,-5.8638,-5.8533,-5.876,-5.8784,-5.8788,-5.8886,-5.8888,-5.8891,-5.8903,-5.8901,-5.8899,-5.8897,-5.9021,-5.9028,-5.9035,-5.9116,0,0,-5.9056,-5.9058,0,0,0,0,0,0,0,0,-5.8632,-5.8647,-5.8779,-5.8783,-5.8787,-5.8877,-5.8852,-5.8966,-5.8904,-5.8859,-5.8899,-5.8897,-5.8977,-5.8987,-5.9015,-5.9122,-5.9127,-5.9056,-5.906,-5.9063,-5.9065,0,0,0,0,0,0,0,-5.8624,-5.8641,-5.881,-5.8781,-5.8786,-5.8789,-5.8802,-5.8874,-5.8927,-5.8863,-5.8864,-5.8879,-5.8978,-5.9008,-5.9018,-5.9129,-5.9056,-5.9062,-5.9066,-5.9069,-5.9312,-5.9315,0,0,0,0,0,0,-5.8612,-5.8635,-5.8806,-5.8814,-5.8703,-5.8795,-5.881,-5.885,-5.8927,-5.8936,-5.8881,-5.8879,-5.8998,-5.901,-5.9023,-5.9126,-5.9063,-5.907,-5.9073,-5.931,-5.9313,-5.9315,0,0,0,0,0,0,-5.8607,-5.8627,-5.8801,-5.8725,-5.8747,-5.8801,-5.8846,-5.8854,-5.8884,-5.894,-5.8949,-5.8902,-5.8997,-5.9013,-5.9094,-5.913,-5.9073,-5.9079,-5.9307,-5.9311,-5.9314,-5.933,0,0,0,0,0,0,-5.8601,-5.8626,-5.8657,-5.8726,-5.8751,-5.887,-5.8848,-5.8857,-5.8896,-5.8895,-5.8962,-5.8971,-5.8996,-5.9083,-5.91,-5.9138,-5.9084,-5.9304,-5.9309,-5.9313,-5.9326,-5.9334,-5.934,0,0,0,0,0,-5.8592,-5.8655,-5.8659,-5.8679,-5.8792,-5.8872,-5.8887,-5.8916,-5.8899,-5.8931,-5.8968,-5.8969,-5.9123,-5.9092,-5.9111,-5.9151,-5.9302,-5.9307,-5.9313,-5.9323,-5.9332,-5.934,0,0,0,0,0,0,-5.8586,-5.8664,-5.8669,-5.8756,-5.8808,-5.8874,-5.8916,-5.8923,-5.898,-5.8977,-5.9009,-5.9024,-5.9104,-5.9135,-5.9099,-5.9236,-5.9211,-5.922,-5.9212,-5.9221,-5.9228,-5.9219,-5.909,0,0,0,0,0,-5.8596,-5.8655,-5.8719,-5.8789,-5.8816,-5.8861,-5.8897,-5.8916,-5.897,-5.8991,-5.9034,-5.9086,-5.9147,-5.9185,-5.9243,-5.9331,-5.9347,-5.9368,-5.9375,-5.938,-5.9388,-5.944,-5.9451,-5.9333,-5.9333,-5.9333,0,0,-5.8614,-5.8664,-5.8699,-5.879,-5.8832,-5.8894,-5.8879,-5.8944,-5.899,-5.9001,-5.9081,-5.9114,-5.9174,-5.926,-5.9299,-5.9288,-5.9425,-5.9387,-5.9391,-5.9396,-5.9447,-5.9458,-5.9468,-5.9336,-5.9336,-5.9335,0,0,-5.868,-5.8723,-5.8788,-5.8832,-5.8898,-5.8928,-5.8944,-5.9011,-5.9034,-5.9115,-5.9126,-5.9181,-5.9283,-5.9327,-5.9362,-5.9449,-5.9454,-5.9467,-5.9502,-5.9552,-5.9562,-5.957,-5.9604,-5.9615,-5.9475,-5.9475,-5.9475,0,-5.8695,-5.8789,-5.882,-5.8887,-5.8927,-5.8942,-5.9009,-5.9049,-5.9129,-5.9157,-5.9144,-5.9276,-5.9317,-5.9415,-5.9436,-5.9464,-5.9484,-5.946,-5.9558,-5.9567,-5.9575,-5.9608,-5.962,-5.9476,-5.9476,-5.9476,-5.9476,0,-5.8805,-5.887,-5.8915,-5.8996,-5.9041,-5.9106,-5.9148,-5.919,-5.9205,-5.9237,-5.9321,-5.9372,-5.9443,-5.9467,-5.948,-5.9568,-5.9559,-5.9552,-5.9527,-5.9588,-5.9619,-5.9631,-5.9478,-5.9478,-5.9477,-5.9477,0,0,-5.887,-5.897,-5.8986,-5.9024,-5.9099,-5.915,-5.9217,-5.9289,-5.9325,-5.9381,-5.9439,-5.9527,-5.9522,-5.9563,-5.9582,-5.9626,-5.9695,-5.9613,-5.9615,-5.9629,-5.9797,-5.9804,-5.9818,-5.9698,-5.9701,-5.9703,-5.9793,0,-5.8946,-5.9068,-5.91,-5.9204,-5.9266,-5.9283,-5.9342,-5.9394,-5.9427,-5.9484,-5.9519,-5.9582,-5.9569,-5.9594,-5.9639,-5.9677,-5.973,-5.9671,-5.9754,-5.9756,-5.974,-5.9834,-5.984,-5.9923,-5.9805,-5.9807,-5.9809,0,-5.9051,-5.9113,-5.9224,-5.9294,-5.9322,-5.9374,-5.9444,-5.9498,-5.9559,-5.9579,-5.9627,-5.9643,-5.9714,-5.9686,-5.9786,-5.9745,-5.9781,-5.9806,-5.981,-5.9819,-5.9787,-5.9848,-5.995,-5.9963,-5.9828,-5.9826,-5.9825,0,-5.9091,-5.9201,-5.9282,-5.9314,-5.9398,-5.9435,-5.9471,-5.953,-5.9572,-5.9633,-5.9661,-5.9728,-5.9765,-5.9817,-5.9851,-5.9827,-5.995,-5.9923,-5.997,-5.9969,-5.9995,-5.9993,-6.0106,-6.0015,-6.0015,-6.0015,-6.0014,0,-5.9174,-5.9242,-5.9302,-5.9352,-5.9429,-5.9465,-5.954,-5.9577,-5.963,-5.9688,-5.9705,-5.9759,-5.98,-5.986,-5.9886,-5.9967,-5.9982,-6.0002,-6.0009,-6.0002,-6.0,-6.0026,-6.0022,-6.0018,-6.0017,-6.0017,-6.0016,0,-5.9231,-5.9274,-5.9364,-5.9437,-5.9458,-5.9511,-5.9574,-5.9624,-5.9658,-5.9731,-5.975,-5.9803,-5.9875,-5.9914,-6.0003,-6.0021,-6.0112,-6.0114,-6.0092,-6.0096,-6.0141,-6.0137,-6.0276,-6.0297,-6.019,-6.0191,-6.0192,0,-5.9282,-5.9335,-5.9415,-5.9457,-5.9495,-5.956,-5.9604,-5.9642,-5.9687,-5.9763,-5.9804,-5.9877,-5.9938,-6.0052,-6.0098,-6.0167,-6.0172,-6.0216,-6.0182,-6.0175,-6.0176,-6.0173,-6.018,-6.0222,-6.0223,-6.0224,-6.0225,0,-5.9369,-5.9389,-5.9452,-5.9525,-5.9578,-5.9636,-5.9694,-5.9726,-5.9774,-5.9824,-5.9899,-5.9946,-6.0039,-6.0112,-6.0186,-6.0223,-6.0233,-6.0235,-6.025,-6.0244,-6.023,-6.0241,-6.0111,-6.0232,-6.0231,-6.0231,-6.023,-6.023,-5.9426,-5.9476,-5.9541,-5.9613,-5.9661,-5.9715,-5.9767,-5.9809,-5.9873,-5.9953,-5.9971,-6.0051,-6.0113,-6.0213,-6.0252,-6.0315,-6.0307,-6.0327,-6.0333,-6.0338,-6.0341,-6.0219,-6.0328,-6.0328,-6.0328,-6.0328,-6.0328,0,-5.9516,-5.956,-5.9626,-5.9708,-5.9765,-5.9771,-5.9836,-5.9883,-5.9953,-6.0011,-6.0072,-6.016,-6.0231,-6.0285,-6.0358,-6.0399,-6.0405,-6.0417,-6.0415,-6.0424,-6.0343,-6.0324,-6.0411,-6.0411,-6.0411,-6.0411,-6.041,-6.041,-5.957,-5.9656,-5.9683,-5.9793,-5.9836,-5.9917,-5.9954,-6.0004,-6.0051,-6.0149,-6.021,-6.0245,-6.0302,-6.038,-6.0447,-6.0461,-6.0488,-6.05,-6.0514,-6.0438,-6.0429,-6.0421,-6.0403,-6.0505,-6.0505,-6.059,-6.0591,-6.0591]}]]